EW0362 Weather Reports


time (UTC)temp
C
wind
direction
speed
KPH
gust
KPH
rain 1hr
cm
rain 24hr
cm
rain mn
cm
humidity
%
barometer
mb
20200405235204 11 202 0.0 1.6 0.00 0.00 0.00 75 1013.9
20200405233704 11 202 0.0 0.0 0.00 0.00 0.00 75 1013.9
20200405232703 11 202 0.0 0.0 0.00 0.00 0.00 77 1013.9
20200405232203 11 202 0.0 1.6 0.00 0.00 0.00 73 1013.8
20200405231704 11 202 0.0 3.2 0.00 0.00 0.00 75 1013.9
20200405231204 11 202 1.6 3.2 0.00 0.00 0.00 75 1014.0
20200405230704 11 202 0.0 0.0 0.00 0.00 0.00 76 1014.0
20200405230204 11 202 0.0 1.6 0.00 0.00 0.00 76 1014.0
20200405225704 11 202 0.0 1.6 0.00 0.00 0.00 74 1014.1
20200405224704 11 202 0.0 1.6 0.00 0.00 0.00 76 1014.1
20200405224204 11 202 0.0 1.6 0.00 0.00 0.00 77 1014.2
20200405223203 12 202 0.0 0.0 0.00 0.00 0.00 76 1014.2
20200405222204 12 202 0.0 0.0 0.00 0.00 0.00 78 1014.2
20200405221203 12 202 0.0 0.0 0.00 0.00 0.00 76 1014.2
20200405220703 12 202 0.0 0.0 0.00 0.00 0.00 75 1014.2
20200405215204 12 202 0.0 0.0 0.00 0.00 0.00 72 1014.2
20200405214204 12 202 0.0 0.0 0.00 0.00 0.00 72 1014.1
20200405213204 12 202 0.0 0.0 0.00 0.00 0.00 71 1014.1
20200405212703 12 202 0.0 0.0 0.00 0.00 0.00 71 1014.0
20200405212204 12 202 0.0 0.0 0.00 0.00 0.00 70 1014.0
20200405211704 12 202 0.0 1.6 0.00 0.00 0.00 70 1014.0
20200405205204 13 216 1.6 3.2 0.00 0.00 0.00 67 1014.1
20200405204204 13 205 0.0 1.6 0.00 0.00 0.00 67 1014.0
20200405203703 13 205 0.0 1.6 0.00 0.00 0.00 67 1014.1
20200405203204 13 205 1.6 4.8 0.00 0.00 0.00 67 1014.1
20200405202703 13 173 1.6 3.2 0.00 0.00 0.00 65 1014.1
20200405202203 13 173 1.6 4.8 0.00 0.00 0.00 67 1014.1
20200405200703 13 150 3.2 4.8 0.00 0.00 0.00 63 1014.1
20200405195203 13 184 4.8 11.3 0.00 0.00 0.00 63 1014.2
20200405194204 13 145 3.2 4.8 0.00 0.00 0.00 63 1014.3
20200405193704 13 200 1.6 11.3 0.00 0.00 0.00 63 1014.3
20200405193204 13 149 3.2 4.8 0.00 0.00 0.00 62 1014.3
20200405192204 13 185 1.6 4.8 0.00 0.00 0.00 62 1014.4
20200405191704 13 191 1.6 4.8 0.00 0.00 0.00 62 1014.5
20200405191204 13 134 1.6 4.8 0.00 0.00 0.00 62 1014.6
20200405185704 13 150 1.6 4.8 0.00 0.00 0.00 62 1014.8
20200405185204 13 171 1.6 4.8 0.00 0.00 0.00 61 1014.9
20200405184204 13 202 4.8 9.7 0.00 0.00 0.00 58 1015.1
20200405183704 13 163 1.6 4.8 0.00 0.00 0.00 60 1015.1
20200405183204 13 161 0.0 4.8 0.00 0.00 0.00 59 1015.2
20200405182204 13 171 1.6 4.8 0.00 0.00 0.00 60 1015.3
20200405181704 13 153 1.6 12.9 0.00 0.00 0.00 61 1015.4
20200405181204 13 133 1.6 4.8 0.00 0.00 0.00 61 1015.4
20200405180204 13 121 3.2 8.0 0.00 0.00 0.00 60 1015.5
20200405175704 13 141 4.8 8.0 0.00 0.00 0.00 60 1015.6
20200405175203 13 197 4.8 11.3 0.00 0.00 0.00 61 1015.7
20200405174704 13 133 4.8 4.8 0.00 0.00 0.00 60 1015.7
20200405173704 12 150 1.6 4.8 0.00 0.00 0.00 62 1015.9
20200405173204 12 230 3.2 4.8 0.00 0.00 0.00 62 1016.0
20200405172712 12 130 3.2 11.3 0.00 0.00 0.00 61 1016.1
20200405172210 12 130 4.8 4.8 0.00 0.00 0.00 63 1016.1
20200405171714 12 111 3.2 8.0 0.00 0.00 0.00 63 1016.1
20200405171204 12 140 3.2 8.0 0.00 0.00 0.00 63 1016.3
20200405165704 11 183 1.6 4.8 0.00 0.00 0.00 65 1016.5
20200405165204 11 184 1.6 3.2 0.00 0.00 0.00 65 1016.6
20200405164704 11 197 3.2 4.8 0.00 0.00 0.00 65 1016.7
20200405162204 11 177 3.2 4.8 0.00 0.00 0.00 65 1017.0
20200405161704 11 108 3.2 4.8 0.00 0.00 0.00 65 1016.9
20200405161204 11 187 1.6 4.8 0.00 0.00 0.00 66 1017.0
20200405160704 11 152 3.2 4.8 0.00 0.00 0.00 66 1017.2
20200405160204 10 189 1.6 8.0 0.00 0.00 0.00 67 1017.1
20200405155704 10 133 3.2 8.0 0.00 0.00 0.00 66 1017.2
20200405155204 10 132 1.6 4.8 0.00 0.00 0.00 66 1017.3
20200405154705 10 118 3.2 4.8 0.00 0.00 0.00 66 1017.3
20200405154204 10 132 3.2 4.8 0.00 0.00 0.00 67 1017.4
20200405153704 10 114 1.6 4.8 0.00 0.00 0.00 67 1017.5
20200405152704 10 134 3.2 4.8 0.00 0.00 0.00 66 1017.4
20200405151704 10 124 1.6 3.2 0.00 0.00 0.00 66 1017.5
20200405151204 10 121 3.2 4.8 0.00 0.00 0.00 67 1017.6
20200405145704 10 172 3.2 4.8 0.00 0.00 0.00 67 1017.8
20200405145204 10 142 3.2 4.8 0.00 0.00 0.00 66 1017.8
20200405144204 10 215 1.6 4.8 0.00 0.00 0.00 69 1017.7
20200405143704 10 222 3.2 4.8 0.00 0.00 0.00 68 1017.6
20200405143204 9 166 3.2 8.0 0.00 0.00 0.00 66 1017.6
20200405142704 9 152 1.6 4.8 0.00 0.00 0.00 67 1017.7
20200405142204 9 153 1.6 4.8 0.00 0.00 0.00 68 1017.7
20200405141704 9 212 1.6 4.8 0.00 0.00 0.00 69 1017.9
20200405141205 9 159 1.6 4.8 0.00 0.00 0.00 69 1017.8
20200405140704 9 141 3.2 8.0 0.00 0.00 0.00 69 1017.9
20200405140204 8 118 3.2 8.0 0.00 0.00 0.00 70 1018.0
20200405135204 8 199 4.8 11.3 0.00 0.00 0.00 68 1017.9
20200405134704 8 146 1.6 4.8 0.00 0.00 0.00 68 1017.9
20200405134205 8 140 1.6 4.8 0.00 0.00 0.00 70 1017.9
20200405133704 8 142 3.2 4.8 0.00 0.00 0.00 70 1017.9
20200405133204 8 146 4.8 8.0 0.00 0.00 0.00 69 1017.9
20200405132204 8 190 3.2 8.0 0.00 0.00 0.00 71 1018.0
20200405131704 8 192 1.6 3.2 0.00 0.00 0.00 72 1018.0
20200405130205 7 159 1.6 4.8 0.00 0.00 0.00 74 1018.0
20200405125704 7 151 1.6 3.2 0.00 0.00 0.00 74 1018.0
20200405125204 7 148 1.6 3.2 0.00 0.00 0.00 74 1017.9
20200405124704 7 146 1.6 3.2 0.00 0.00 0.00 76 1018.0
20200405124204 7 115 1.6 4.8 0.00 0.00 0.00 75 1018.0
20200405123209 6 5 0.0 0.0 0.00 0.00 0.00 79 1018.0
20200405120703 6 202 0.0 1.6 0.00 0.00 0.00 81 1018.1
20200405120203 6 204 1.6 3.2 0.00 0.00 0.00 82 1018.1
20200405114703 6 204 0.0 0.0 0.00 0.00 0.00 84 1017.9
20200405113704 5 204 0.0 0.0 0.00 0.00 0.00 85 1017.7
20200405113203 5 204 0.0 1.6 0.00 0.00 0.00 85 1017.7
20200405111204 5 174 0.0 0.0 0.00 0.00 0.00 86 1017.7
20200405110703 5 174 0.0 0.0 0.00 0.00 0.00 86 1017.6
20200405110203 5 174 0.0 0.0 0.00 0.00 0.00 87 1017.5
20200405105203 5 174 0.0 0.0 0.00 0.00 0.00 88 1017.5
20200405104703 5 174 0.0 1.6 0.00 0.00 0.00 87 1017.4
20200405104203 5 174 0.0 0.0 0.00 0.00 0.00 87 1017.4
20200405103703 5 174 0.0 0.0 0.00 0.00 0.00 87 1017.3
20200405103204 5 174 0.0 0.0 0.00 0.00 0.00 87 1017.3
20200405101704 5 174 0.0 0.0 0.00 0.00 0.00 88 1017.2
20200405101203 5 174 0.0 1.6 0.00 0.00 0.00 88 1017.2
20200405100703 5 174 0.0 0.0 0.00 0.00 0.00 88 1017.2
20200405095704 5 174 0.0 0.0 0.00 0.00 0.00 88 1017.1
20200405094203 5 174 0.0 0.0 0.00 0.00 0.00 88 1017.1
20200405093703 5 174 0.0 0.0 0.00 0.00 0.00 88 1017.1
20200405092204 5 174 0.0 0.0 0.00 0.00 0.00 89 1017.0
20200405091709 5 174 0.0 0.0 0.00 0.00 0.00 88 1017.0
20200405091204 5 174 0.0 0.0 0.00 0.00 0.00 88 1016.9
20200405090703 5 174 0.0 0.0 0.00 0.00 0.00 88 1017.0
20200405085703 5 174 0.0 1.6 0.00 0.00 0.00 88 1016.9
20200405084703 5 174 0.0 1.6 0.00 0.00 0.00 89 1016.8
20200405084204 5 174 0.0 1.6 0.00 0.00 0.00 88 1016.8
20200405083703 5 174 0.0 1.6 0.00 0.00 0.00 88 1016.8
20200405083204 5 174 0.0 1.6 0.00 0.00 0.00 89 1016.8
20200405082204 5 174 0.0 0.0 0.00 0.00 0.00 89 1016.8
20200405081703 5 174 0.0 0.0 0.00 0.00 0.00 89 1016.8
20200405081203 5 174 0.0 1.6 0.00 0.00 0.00 88 1016.9
20200405080703 5 174 0.0 1.6 0.00 0.00 0.00 88 1016.8
20200405075703 5 174 0.0 1.6 0.00 0.00 0.00 89 1016.8
20200405074703 5 174 0.0 0.0 0.00 0.00 0.00 89 1016.9
20200405074204 5 174 0.0 0.0 0.00 0.00 0.00 89 1016.9
20200405073703 5 174 0.0 0.0 0.00 0.00 0.00 89 1016.8
20200405073204 5 174 0.0 0.0 0.00 0.00 0.00 89 1016.8
20200405072704 5 174 0.0 0.0 0.00 0.00 0.00 88 1016.7
20200405072203 5 174 0.0 0.0 0.00 0.00 0.00 88 1016.7
20200405071704 5 174 0.0 0.0 0.00 0.00 0.00 88 1016.7
20200405070704 5 174 0.0 1.6 0.00 0.00 0.00 88 1016.7
20200405070204 5 174 0.0 1.6 0.00 0.00 0.00 88 1016.7
20200405065704 5 174 0.0 0.0 0.00 0.00 0.00 88 1016.7
20200405064204 5 174 0.0 1.6 0.00 0.00 0.00 87 1016.9
20200405063703 5 174 0.0 0.0 0.00 0.00 0.00 87 1016.9
20200405063203 5 174 0.0 0.0 0.00 0.00 0.00 88 1016.8
20200405062704 5 174 0.0 0.0 0.00 0.00 0.00 88 1016.9
20200405062203 5 174 0.0 0.0 0.00 0.00 0.00 88 1016.9
20200405061704 5 174 0.0 0.0 0.00 0.00 0.00 88 1016.7
20200405061203 5 174 0.0 0.0 0.00 0.00 0.00 87 1016.8
20200405060704 5 174 0.0 0.0 0.00 0.00 0.00 88 1016.8
20200405060203 5 174 0.0 0.0 0.00 0.00 0.00 87 1016.9
20200405055703 5 174 0.0 0.0 0.00 0.03 0.00 87 1016.9
20200405054704 5 174 0.0 0.0 0.00 0.03 0.00 87 1017.0
20200405054203 5 174 0.0 0.0 0.00 0.03 0.00 87 1017.1
20200405053704 5 174 0.0 0.0 0.00 0.03 0.00 87 1017.0
20200405051704 5 174 0.0 0.0 0.00 0.03 0.00 87 1016.9
20200405045203 5 174 0.0 0.0 0.00 0.03 0.00 86 1017.1
20200405044704 5 174 0.0 0.0 0.00 0.03 0.00 86 1017.1
20200405043704 5 174 0.0 0.0 0.00 0.05 0.00 86 1017.2
20200405042704 5 174 0.0 3.2 0.00 0.05 0.00 85 1017.1
20200405042203 5 174 0.0 1.6 0.00 0.05 0.00 85 1017.1
20200405041704 5 174 0.0 1.6 0.00 0.08 0.00 85 1017.0
20200405040704 5 190 0.0 0.0 0.00 0.08 0.00 86 1017.0
20200405040203 5 190 0.0 0.0 0.00 0.08 0.00 86 1017.0
20200405035702 5 190 0.0 0.0 0.00 0.10 0.10 86 1017.0
20200405034702 6 190 0.0 0.0 0.00 0.10 0.10 86 1016.9
20200405033702 6 190 0.0 1.6 0.00 0.10 0.10 86 1016.9
20200405033202 6 190 0.0 0.0 0.00 0.13 0.10 85 1016.9
20200405032702 6 190 0.0 1.6 0.00 0.13 0.10 85 1017.0
20200405032202 6 190 0.0 3.2 0.00 0.13 0.10 85 1016.9
20200405031702 6 190 0.0 3.2 0.00 0.13 0.10 85 1016.9
20200405031202 6 190 0.0 0.0 0.00 0.15 0.10 86 1016.8
20200405030702 6 190 0.0 3.2 0.00 0.15 0.10 85 1016.7
20200405025702 6 198 0.0 0.0 0.00 0.15 0.10 85 1016.7
20200405025202 6 198 0.0 0.0 0.00 0.18 0.10 85 1016.7
20200405024203 6 198 1.6 4.8 0.00 0.20 0.10 85 1016.7
20200405023702 6 202 0.0 1.6 0.00 0.20 0.10 84 1016.7
20200405023202 6 202 0.0 4.8 0.00 0.20 0.10 84 1016.6
20200405022702 6 217 0.0 3.2 0.00 0.20 0.10 84 1016.7
20200405022202 6 217 0.0 3.2 0.00 0.23 0.10 84 1016.5
20200405021702 6 217 0.0 3.2 0.00 0.23 0.10 84 1016.5
20200405021202 6 217 0.0 1.6 0.00 0.23 0.10 84 1016.4
20200405020703 6 217 0.0 0.0 0.00 0.23 0.10 83 1016.4
20200405020202 6 217 0.0 0.0 0.00 0.23 0.10 83 1016.4
20200405015702 6 217 0.0 4.8 0.00 0.25 0.10 83 1016.4
20200405015202 6 140 0.0 0.0 0.00 0.25 0.10 82 1016.4
20200405014703 7 140 0.0 1.6 0.00 0.25 0.10 82 1016.3
20200405014202 7 140 1.6 3.2 0.00 0.25 0.10 82 1016.4
20200405013702 7 140 0.0 4.8 0.00 0.25 0.10 81 1016.3
20200405013202 7 197 0.0 3.2 0.00 0.25 0.10 81 1016.4
20200405012703 7 197 0.0 1.6 0.00 0.28 0.10 81 1016.4
20200405012202 7 197 0.0 1.6 0.00 0.30 0.10 80 1016.4
20200405011202 7 197 0.0 1.6 0.00 0.30 0.10 80 1016.4
20200405010702 7 197 1.6 4.8 0.00 0.30 0.10 80 1016.2
20200405010202 7 147 0.0 1.6 0.00 0.33 0.10 80 1016.2
20200405004703 7 147 0.0 1.6 0.00 0.33 0.10 79 1016.3
20200405004203 7 147 0.0 1.6 0.00 0.33 0.10 79 1016.2
20200405003202 7 147 0.0 3.2 0.00 0.36 0.10 79 1016.2
20200405002203 7 147 0.0 0.0 0.00 0.36 0.10 78 1016.1
20200405001702 7 147 0.0 1.6 0.00 0.36 0.10 79 1016.0
20200405001202 7 147 0.0 1.6 0.00 0.36 0.10 78 1016.0
20200405000702 7 147 0.0 1.6 0.00 0.38 0.10 79 1016.0
20200404235702 7 147 0.0 1.6 0.00 0.38 0.10 78 1016.0